OBJECT B, 54362

Orbit data source: Space-Track

You're viewing an Uncataloged Satellite

Recently launched and/or uncataloged satellites may have evolving metadata. Metadata may include but not limited to: Owner, Maufacturer, Bus, Motor, and Mission.

OBJECT B, 54362 is a satellite in SSO that was launched on Sat, 26 Nov 2022 UTC launched from the Sirharikota (SRI). Unknown objects in Earth's orbit typically refer to objects detected orbiting the Earth but have not yet been identified or cataloged. These objects could be anything from previously untracked satellites, spent rocket stages, debris from satellite collisions, or even natural meteoroids temporarily captured by Earth's gravity.

Loading next visibility...
Identifier
54362, 2022-158B
Orbit
SSO
Country
Flag of TBDTBD
Related business
Manufacturer
VSSC/LPSC
Mission
Non-operational spacecraft
Bus & Motor
PS-4DL, Unknown motor
Mass
920 kg wet, 920 kg dry
Launch date (UTC)
2022-11-26 (3 years ago)
Launch vehicle
Unknown
Launch site
Sirharikota (SRI)
Object type
Unknown
Shape & HBR
Cyl + Cyl + 2 Nozzle, 1.6 m
Radar Cross Section
3.727 m², Large (>1 m²)

Expand to show TLE details & history
Last TLE update: 9 hours ago

TLE from 9 hours ago
0 OBJECT B
1 54362U 22158B   25346.98637149  .00024840  00000-0  51236-3 0  9993
2 54362  97.4755  99.9132 0011718 276.7472  83.2443 15.45802545169914
Epoch: 2025-12-12T23:40Z
TLE epoch observation values (Epoch: 2025-12-12T23:40:22.496Z)
Latitude
-0.00007°
Longitude
22.89935°
Altitude
431.215 km
Speed
7.653 km/s
True Right ascension
06h 39m 39s
True Declination
0° 00' 00"
Sunlit
Object was in full shadow at epoch
Visualization orbit readout
Latitude
Unknown
Longitude
Unknown
Altitude
Unknown
Speed
Unknown
Apparent Right ascension
Unknown
Apparent Declination
Unknown
Sunlit
N/A
Visualization observer readout
Local Sidereal Time
07:32:44
Azimuth
Unknown
Elevation
Unknown
Doppler factor
Unknown
Orbital elements
Apogee altitude
433.929 km
Perigee altitude
417.982 km
Semi-major axis
6,804.093 km
Eccentricity
0.00117
Inclination
97.4755°
RAAN
99.9132°
Arg. of periapsis
276.7472°
True anomaly
83.37767°
Mean anomaly
83.2443°
Eccentric anomaly
83.31098°
Mean motion
3.86712 °/min
Orbital period
93.09 mins
BSTAR
0.00051236
Loading maneuver chart data...
Computing Atmospheric mass density...
Loading historical data...
Loading historical data...
Loading historical data...
Loading historical data...
Loading historical data...
Loading historical data...
Loading historical data...

Documentation

Showing up to 5 results
|